Weather in Malyye Kibechi

Russia / Chuvash Republic     55°37′25″N   47°37′55″E
temp.,
°C
wind,
m/s
gust,
m/s
humid.,
%
clouds,
%
prec.,
mm/h
press.,
hPa
HPBL,
m
10 may, mon
mon1000:00+13s3385100 0.0 101339
03:00+12nnw2289100 0.2 101430
06:00+13ne3786100 0.1 1016206
09:00+17e4672100 0.1 1017435
12:00+21se2354100 0.0 10181070
15:00+22e225099 0.1 10191528
18:00+18n6978100 0.6 1021246
21:00+14nne51094100 1.8 1023274
11 may, tue
tue1100:00+12nne51098100 0.2 1023240
03:00+12nne5997100 0.2 1024204
06:00+13ne489166 0.0 1024218
09:00+18ene5668100 0.0 1025510
12:00+22e5652100 0.0 1026982
15:00+23e4547100 0.0 10261370
18:00+20ene3462100 0.0 102665
21:00+17e2264100 0.0 102718
12 may, wed
wed1200:00+15ene336898 0.0 102732
03:00+14ene3368100 0.0 102729
06:00+15e387395 0.0 1027223
09:00+20ese4657100 0.0 1027525
12:00+23se584340 0.0 10272136
15:00+24ese574287 0.0 10272519
18:00+19s236375 0.0 102761
21:00+16ese116599 0.0 102711
13 may, thu
thu1300:00+15e2273100 0.0 102711
03:00+14ese337218 0.0 102730
06:00+16ese376840 0.0 1027199
09:00+20se585142 0.0 1026723
12:00+23se794149 0.0 10261438
15:00+23se5741100 0.0 10251493
18:00+21ese496196 0.0 1024229
21:00+18se41166100 0.0 1024253
14 may, fri
fri1400:00+17se31065100 0.0 1024219
03:00+16sse386676 0.0 1024160
06:00+16sse497069 0.0 1024239
09:00+21sse585185 0.0 1023517
12:00+24sse684280 0.0 10221019
15:00+24sse78435 0.0 10221013
18:00+22sse595877 0.0 1021276
21:00+18sse3869100 0.0 1020113